User: anonymous   Login
Location: Siloam Springs
(36.1881°N, 94.5403°W)
Time: 11:01:20
(UTC-05:00)
Language:

YUBILEINY - Orbit

View from above orbital plane
View from above orbital plane
View from above satellite
View from above satellite

Ground track
Ground track

The orbit data is extracted from the following two-line orbital elements,

1 32953U 08025A   24149.51497573  .00000050  00000-0  29000-3 0  9997
2 32953  82.5012 101.7214 0019886 144.2270 216.0146 12.43141444726687
Epoch (UTC): 28 May 2024 12:21:33
Eccentricity: 0.0019886
inclination: 82.5012°
perigee height: 1477 km
apogee height: 1509 km
right ascension of ascending node: 101.7214°
argument of perigee: 144.2270°
revolutions per day: 12.43141444
mean anomaly at epoch: 216.0146°
orbit number at epoch: 72668

The dashed part of the orbit path shows where the satellite is in the earth's shadow,  

DLR